San Luis Obispo, CA

10:52 AM PDT on July 20, 2017 (GMT -0700)
San Luis Obispo County-McChesney

Weather History for KSBP - November, 2013

Change the Weather History Date:

Monday, November 11, 2013

  Actual Average Record
Temperature  
Mean Temperature 58 °F -  
Max Temperature 75 °F 70 °F 90 °F (1956)
Min Temperature 41 °F 46 °F 30 °F (2000)
Degree Days  
Heating Degree Days 7    
Growing Degree Days 8 (Base 50)    
Moisture  
Dew Point 45 °F    
Average Humidity 79    
Maximum Humidity 97    
Minimum Humidity 31    
Precipitation  
Precipitation 0.00 in - - ()
Sea Level Pressure  
Sea Level Pressure 30.10 in    
Wind  
Wind Speed 3 mph (NNE)    
Max Wind Speed 15 mph    
Max Gust Speed -    
Visibility 8 miles    
Events Fog    
Averages and records for this station are not official NWS values.
T = Trace of Precipitation, MM = Missing Value Source: NWS Daily Summary

Daily Weather History Graph

Daily Weather History Graph

Search for Another Location

Airport or City:

Trip Planner

Search our weather history database for the weather conditions in past years. The results will help you decide how hot, cold, wet, or windy it might be!

Date:

Astronomy

Nov. 11, 2013 Rise Set
Actual Time 6:33 AM PST 4:58 PM PST
Civil Twilight 6:07 AM PST 5:25 PM PST
Nautical Twilight 5:36 AM PST 5:56 PM PST
Astronomical Twilight 5:06 AM PST 6:26 PM PST
Moon 1:31 PM PST (11/11) 12:37 AM PST (11/11)
Length of Visible Light 11h 18m
Length of Day
10h 25m
Waxing Gibbous, 67% of the Moon is Illuminated
Nov 11
Waxing Gibbous
Nov 17
Full
Nov 25
Last Quarter
Dec 2
New
Dec 9
First Quarter

Hourly Weather History & Observations

Time (PST) Temp. Windchill Dew Point Humidity Pressure Visibility Wind Dir Wind Speed Gust Speed Precip Events Conditions
12:56 AM 45.0 °F - 42.1 °F 90% 30.09 in 7.0 mi Calm Calm - N/A   Clear
1:56 AM 45.0 °F 42.6 °F 43.0 °F 93% 30.08 in 8.0 mi East 4.6 mph - N/A   Clear
2:56 AM 44.1 °F 42.5 °F 42.1 °F 93% 30.09 in 7.0 mi SE 3.5 mph - N/A   Clear
3:56 AM 42.1 °F - 39.0 °F 89% 30.09 in 8.0 mi North - - N/A   Scattered Clouds
4:06 AM 42.8 °F - 39.2 °F 87% 30.09 in 7.0 mi Calm Calm - N/A   Mostly Cloudy
4:24 AM 42.8 °F 41.1 °F 39.2 °F 87% 30.10 in 2.5 mi SSE 3.5 mph - N/A   Scattered Clouds
4:39 AM 42.8 °F 40.1 °F 39.2 °F 87% 30.10 in 7.0 mi ESE 4.6 mph - N/A   Partly Cloudy
4:56 AM 42.1 °F 38.4 °F 39.9 °F 92% 30.09 in 7.0 mi SE 5.8 mph - N/A   Clear
5:24 AM 42.8 °F - 41.0 °F 93% 30.08 in 4.0 mi Calm Calm - N/A   Scattered Clouds
5:27 AM 42.8 °F - 39.2 °F 87% 30.08 in 1.5 mi Calm Calm - N/A   Mostly Cloudy
5:29 AM 42.8 °F - 41.0 °F 93% 30.08 in 0.8 mi Calm Calm - N/A   Mist
5:39 AM 42.8 °F 41.1 °F 39.2 °F 87% 30.08 in 0.2 mi ENE 3.5 mph - N/A Fog Fog
5:51 AM 42.8 °F 41.1 °F 41.0 °F 93% 30.09 in 1.2 mi East 3.5 mph - N/A   Overcast
5:56 AM 43.0 °F 41.3 °F 42.1 °F 97% 30.09 in 2.0 mi East 3.5 mph - N/A   Scattered Clouds
6:05 AM 44.6 °F - 42.8 °F 93% 30.08 in 10.0 mi Calm Calm - N/A   Scattered Clouds
6:56 AM 41.0 °F - 39.0 °F 93% 30.08 in 6.0 mi Calm Calm - N/A   Scattered Clouds
7:56 AM 48.9 °F - 45.0 °F 86% 30.09 in 10.0 mi ESE 4.6 mph - N/A   Clear
8:56 AM 54.0 °F - 46.0 °F 75% 30.12 in 10.0 mi NW 5.8 mph - N/A   Clear
9:56 AM 64.0 °F - 46.9 °F 54% 30.11 in 10.0 mi Calm Calm - N/A   Clear
10:56 AM 71.1 °F - 43.0 °F 36% 30.10 in 10.0 mi Calm Calm - N/A   Clear
11:56 AM 75.0 °F - 45.0 °F 34% 30.09 in 10.0 mi WNW 5.8 mph - N/A   Scattered Clouds
12:56 PM 75.9 °F - 43.0 °F 31% 30.06 in 10.0 mi WNW 3.5 mph - N/A   Clear
1:56 PM 68.0 °F - 45.0 °F 43% 30.07 in 10.0 mi NW 15.0 mph - N/A   Clear
2:56 PM 68.0 °F - 51.1 °F 55% 30.06 in 10.0 mi NW 11.5 mph - N/A   Clear
3:56 PM 66.9 °F - 51.1 °F 57% 30.07 in 10.0 mi WNW 8.1 mph - N/A   Clear
4:56 PM 60.1 °F - 50.0 °F 69% 30.09 in 10.0 mi NNW 6.9 mph - N/A   Clear
5:56 PM 57.9 °F - 53.1 °F 84% 30.13 in 10.0 mi North - - N/A   Clear
6:56 PM 57.9 °F - 53.1 °F 84% 30.15 in 10.0 mi NW 11.5 mph - N/A   Mostly Cloudy
7:56 PM 57.0 °F - 53.1 °F 87% 30.16 in 10.0 mi WNW 5.8 mph - N/A   Clear
8:56 PM 57.0 °F - 53.1 °F 87% 30.15 in 10.0 mi North - - N/A   Clear
9:56 PM 55.9 °F - 52.0 °F 87% 30.15 in 10.0 mi East 3.5 mph - N/A   Clear
10:56 PM 55.0 °F - 51.1 °F 86% 30.15 in 10.0 mi Calm Calm - N/A   Clear
11:56 PM 53.1 °F - 50.0 °F 89% 30.14 in 10.0 mi Calm Calm - N/A   Clear